Regional Weather Roundup
Issued by NWS Charleston, SC

Current Version | Previous Version | Graphics & Text | Print | Product List | Glossary On
Versions: 1 2 3 4 5 6 7 8 9 10 11 12 13 14 15 16 17 18 19 20 21 22 23 24 25 26 27 28 29 30 31 32 33 34 35 36 37 38 39 40 41 42 43 44 45 46 47 48 49 50
000
ASUS42 KCHS 292113
RWRCHS

REGIONAL WEATHER ROUNDUP
NATIONAL WEATHER SERVICE CHARLESTON SC
500 PM EDT SUN MAY 29 2016

NOTE: "FAIR" INDICATES FEW OR NO CLOUDS BELOW 12,000 FEET WITH NO
SIGNIFICANT WEATHER AND/OR OBSTRUCTIONS TO VISIBILITY.

NOT ALL STATIONS ARE QUALITY CONTROLLED. USE DATA WITH CAUTION...
ESPECIALLY DEWPOINT OBSERVATIONS.

SCZ027-030-031-034>040-042>050-292200-
...SOUTHEAST SOUTH CAROLINA...

CITY           SKY/WX    TMP DP  RH WIND       PRES   REMARKS
N CHARLESTON   CLOUDY    78  67  68 SE5       29.88F
WATERFRONT PRK   N/A     76  70  81 SE6       29.86F
MOUNT PLEASANT CLOUDY    73  73 100 SE3       29.89F FOG
JOHNS ISLAND   CLOUDY    75  68  78 S13       29.89S
PINOPOLIS        N/A     81  70  69 E9        29.81F
MONCKS CORNER  CLOUDY    77  66  69 SE7       29.89F
SUMMERVILLE    CLOUDY    79  72  78 CALM      29.89S
BEAUFORT MCAS  LGT RAIN  69  67  93 W14G21    29.90R FOG
BEAUFORT ARPT  LGT RAIN  70  66  88 W16G25    29.89F
HILTON HEAD IS NOT AVBL
WALTERBORO     LGT RAIN  72  72 100 NE5       29.91R
ALLENDALE      TSTM      68  66  94 VRB8G17   29.94F

...SOUTHERN MIDLANDS AND PEE DEE...

CITY           SKY/WX    TMP DP  RH WIND       PRES   REMARKS
GEORGETOWN     CLOUDY    73  68  83 E10       29.93F
KINGSTREE      CLOUDY    77  68  73 E9        29.91F
ORANGEBURG     HVY RAIN  71  69  93 N14G20    29.93S VSB 3/4
BARNWELL       HVY RAIN  70  70 100 NW12G17   29.97F
AIKEN          CLOUDY    72  63  73 N12G18    30.03F
MANNING        FAIR      79  68  69 E6        29.90S
COLUMBIA       CLOUDY    78  65  63 N10G18    29.97S
SUMTER         CLOUDY    73  70  91 N17       29.91F
FLORENCE       SUNNY     83  68  60 E17       29.94R
MYRTLE BEACH   NOT AVBL
N MYRTLE BEACH PTSUNNY   79  71  76 SE8G17    29.95F

$$

GAZ063-065-086>088-099>101-113>116-118-119-134>141-150-292200-
...SOUTHEAST GEORGIA...

CITY           SKY/WX    TMP DP  RH WIND       PRES   REMARKS
SAVANNAH ARPT  LGT RAIN  69  64  84 NW17G26   29.97F
HUNTER AAF     CLOUDY    71  66  83 W15G23    29.95S
FORT STEWART   CLOUDY    76  62  60 W15       29.99F
STATESBORO     RAIN      68  66  94 NW10G16   30.00F
SYLVANIA       RAIN      68  66  93 W7        29.99F
CLAXTON        FAIR      76  66  71 W9        30.02S

...CSRA...CENTRAL AND FAR SOUTHEAST GEORGIA...

CITY           SKY/WX    TMP DP  RH WIND       PRES   REMARKS
THOMSON        MOSUNNY   75  65  70 N7        30.08S
AUGUSTA-BUSH   CLOUDY    75  65  70 N9        29.99S
AUGUSTA-DANIEL CLOUDY    77  62  59 N13       30.01S
SWAINSBORO     LGT RAIN  77  61  57 N10G17    30.04S
VIDALIA        MOSUNNY   81  59  47 NW14      30.04S
EASTMAN        FAIR      84  61  45 NE7       30.06F
HAZLEHURST     FAIR      87  57  36 N12       30.02F
ALMA           SUNNY     86  59  39 NW12      30.03S
WAYCROSS       PTSUNNY   84  63  47 N9        30.02F
JESUP          FAIR      79  57  47 NW14      30.02F
BAXLEY         FAIR      86  57  37 N12G22    30.02F
BRUNSWICK      MOSUNNY   88  63  42 NW7       30.02F
SAINT SIMONS   SUNNY     84  62  47 NW8       30.00F

$$

SCZ027-028-034-036>038-045-046-048>050-GAZ119-141-292200-
...LAKE AND SUPPLEMENTAL COASTAL OBSERVATIONS...

STATION/POSITION TIME  TEMP    WIND        PRES    WAVE   SWELL
                       AIR SEA DIR/SP/G            HT/PER HT/PER/DIR
                 (UTC) (F)     (DEG/KT/KT) (MB)    (FT/S) (FT/S/D)
WINYAH BAY       NOT AVBL
LAKE MURRAY      2000   78     360/  5/ 13 1014.9F
ACE BASIN NERRS  NOT AVBL
FORT PULASKI     2000   70 76  270/ 19/ 24 1015.0F
SAPELO ISLAND    2000   79     300/ 15     1017.0S

$$

ANZ835-935-AMZ111-154-330-350-352-354-370-450-454-472-292200-
...C-MAN AND BUOY OBSERVATIONS...

STATION/POSITION TIME  TEMP    WIND        PRES    WAVE   SWELL
                       AIR SEA DIR/SP/G            HT/PER HT/PER/DIR
                 (UTC) (F)     (DEG/KT/KT) (MB)    (FT/S) (FT/S/D)
BUOY 41004       2050   72 78  210/ 17/ 19 1012.8F   6/ 8
BUOY 41008       2050   75 76  280/ 19/ 23 1015.5R   4/ 4   2/ 80/ 8
FOLLY BEACH CMAN 2100   73     210/ 12/ 15 1012.5F
CAPERS NEARSHORE 2008   72 76  170/ 10/ 14 1012.2F
FRIPP NEARSHORE  2008   72 75  260/ 19/ 25 1012.1F


STATION/POSITION TIME  TEMP    WIND        PRES    WAVE   SWELL
                       AIR SEA DIR/SP/G            HT/PER HT/PER/DIR
                 (UTC) (F)     (DEG/KT/KT) (MB)    (FT/S) (FT/S/D)
5E ST. MARYS GA  2101      79                N/A     3/ 8
FRYING PAN BUOY  2000   78 79  150/ 14/ 16 1015.0F
BUOY 41025       2050   79 78  160/ 17/ 21 1017.6F   6/ 7   2/150/ 8
CAPE LOOKOUT NC  2000   77     140/ 10/ 11 1017.0F
BUOY 41002       2050   76 76  130/ 12/ 14 1018.4F   4/ 8   3/ 90/ 8
BUOY 41010       2020   79 80  330/  4/  6 1017.4F
ST AUGUSTINE FL  2100   79 81   90/  8/  9 1017.3S


$$




USA.gov is the U.S. government's official web portal to all federal, state and local government web resources and services.